Vertical_Velocity
-1 -1 -1 -2 -1 -1 -1 0 -1 -2 -1 -0 -1 -0 -1 0 -0 -1 -1 -1 -1 -2 -2 -1 -1 -2 -2 -1 -1 -1 -2 -1 -0 -1 -1 -3 -3 -4 -1 -0 -5 -3 0 -1 -3 -4 -0
-2 -1 -0 0 -0 -1 -0 -1 -0 -0 -0 -2 -2 -2 -2 -1 -1 -1 -1 -1 -1 -1 0 -2 -1 -0 1 -0 -1 -1 -2 -1 -2 -1 -0 -1 -1 -2 -4 -1 -4 -4 -3 -2 1 -1 -2
-1 -1 -1 -1 -1 -0 -1 -1 -1 -1 -1 -0 -1 -2 -1 -0 -1 1 1 -1 -1 -0 -0 0 -1 -1 -2 -1 -1 -1 -2 -1 0 -2 -1 -2 -3 -0 -0 2 -3 -1 0 -2 -2 -4 -2
-1 -0 -2 -2 -1 -1 -1 -1 -1 0 -1 -1 -1 -1 -2 -1 -2 -1 -1 -1 -1 -2 -0 0 1 -1 -0 -2 -4 -1 -1 -2 -3 -2 -2 -2 -3 -1 -1 0 1 -2 -2 -2 -2 -5 -2
1 -0 0 -1 -1 -1 -1 -1 -0 -0 0 -1 -1 -2 -2 -2 -2 -2 -2 -1 0 2 1 -2 0 0 -1 -2 -1 -1 0 -0 -1 -2 -2 1 -0 -5 -3 -3 0 -2 -1 -2 -0 1 -3
-1 0 -0 -0 -1 -1 -2 -1 -1 -1 -1 -1 0 -1 -2 -2 -2 -2 -2 -2 2 -4 -1 -1 0 -1 -1 -2 1 1 -0 1 2 -0 -0 -3 -2 -2 0 -2 -0 -3 -4 -2 -4 -2 1
-0 -0 -0 -0 -0 -0 -1 -2 -1 -2 -1 -1 -1 -0 1 0 -1 -1 0 4 -4 2 -2 -2 -2 -0 1 -0 -0 0 2 1 -1 -1 -1 -1 -3 -4 0 3 3 -0 1 -3 -3 -1 -3
-1 -0 -0 -0 -1 -0 -1 -0 -1 -1 -1 -0 0 -1 -1 -1 -1 -2 0 -4 -1 -1 -2 -1 -2 -2 -2 -1 -0 1 -0 -1 -1 -1 -1 -2 -1 -0 -1 -2 -0 -2 1 -1 -1 -3 -1
-1 -0 -0 0 -1 -1 -1 -1 -1 -1 -1 -1 -1 0 -1 -1 -0 -1 -1 0 0 -0 -2 -2 -1 -1 0 0 -0 -1 -1 -1 -0 0 -0 -1 -1 -1 -2 -3 -3 -2 -1 -2 -2 3 -1
-1 -0 -1 -1 -1 -1 -1 -1 -1 -2 -1 -1 -1 -2 -1 -0 -2 -2 -1 -2 -1 -1 -1 -1 -3 -2 -0 -1 -1 -0 -2 1 -2 -1 0 0 0 0 0 -1 2 3 1 2 2 -2 0
0 -0 -1 -1 -1 0 -0 -2 -2 -2 -2 -1 -2 -1 -0 -1 -1 -2 -1 -1 -2 -1 -1 -1 -1 -2 -2 1 0 -1 2 -2 -2 -0 -2 -1 -3 -1 1 1 -1 0 -1 -0 1 0 2
-1 0 -0 -1 -1 -0 -1 -1 -1 0 -0 -2 -0 -1 -1 -1 -1 -1 -2 -2 -2 -2 -2 -2 -1 -2 -3 -4 -2 -1 -1 0 1 -0 -2 -1 1 -2 -2 1 4 -1 -2 1 2 0 1
-1 0 -0 -0 -0 -1 -0 -0 -1 -0 1 0 -0 -1 -3 -1 -1 -1 -1 -1 -3 -0 -1 0 -2 0 2 0 -2 -1 0 0 -1 -0 0 -2 -1 0 -1 -1 -2 3 1 -3 -5 -0 -1
-0 -0 -1 1 1 0 -1 -1 -1 -1 -0 0 -0 -1 -2 -4 -2 -2 -1 -2 -2 -1 -0 1 -1 1 1 2 1 -2 -3 -2 1 -0 3 2 -3 -2 -2 0 3 -1 -1 -2 -9 -7 1
-0 -0 -0 -0 1 0 -0 -2 -1 -0 -0 -1 -1 -2 -3 -3 -3 -3 -2 -3 -4 -1 -1 -2 0 -0 -2 -2 -1 -1 2 -2 -1 -2 -1 -2 -4 -3 -2 -2 0 1 2 4 4 -2 -3
-1 -0 -0 1 0 -1 -1 -2 -2 -2 -1 -2 -2 -1 -3 -4 -3 -3 -2 -1 1 -1 -1 -2 1 2 3 0 -2 -2 -2 -1 -3 -1 -1 3 7 0 -4 -1 -1 -1 -4 -3 3 -1 0
1 -1 -1 -0 1 0 -1 -1 -1 -1 -3 -3 -2 -1 -3 -3 -3 -2 -3 -1 -3 -1 -0 -1 -1 -3 -1 3 -1 -1 -3 -2 -1 0 -2 -3 5 -6 -7 -3 -3 -4 -3 -2 -2 8 -2
1 2 -0 -1 -1 -0 -1 -1 0 -0 0 -0 -2 -2 -2 -2 -4 -3 -4 -3 -2 -4 -2 -3 -2 -2 -2 -2 3 -3 -2 -3 -4 -3 -0 -2 -4 9 0 1 1 -1 -3 1 -1 2 1
-2 -2 0 -1 -0 -0 -1 -2 -1 0 -2 -0 -2 -3 -1 -4 -3 -3 -4 -3 -4 -5 -6 -1 -3 -1 -1 -4 -3 1 -3 2 -3 -2 -5 2 -4 -5 5 -3 -0 4 -1 -7 -4 -1 17
-0 -1 -2 -1 -0 0 0 -0 -1 1 -2 0 0 -2 -2 -3 -3 -2 -3 -1 -2 -2 -2 -5 -3 -0 -2 -2 -4 -3 -3 1 1 -2 -2 -5 7 -1 -5 -1 -7 -2 5 -0 -5 3 -4
1 1 1 0 -1 -0 -0 -1 -1 -1 -0 1 -3 1 -2 -4 -0 -2 -1 -1 -2 3 -3 -1 -1 -1 -1 -2 4 0 -3 2 -10 0 -3 -5 0 -2 3 1 -1 -1 -4 3 -3 3 -11
-2 -1 -1 1 2 1 2 -2 -0 -1 1 1 -0 -0 -0 -2 -2 -3 -3 2 -2 1 3 -0 0 -0 -0 0 -3 -3 4 -8 4 6 -5 1 -6 -5 13 2 0 3 1 2 -0 1 1
-1 -1 -1 -2 -1 -1 -1 -1 -2 -0 -1 -1 -0 -1 1 6 0 -3 -7 -2 0 -2 4 -3 -3 4 -1 -2 -1 -4 -3 1 -2 -6 -3 -3 -10 -13 4 -5 1 7 0 -1 1 4 -1
-0 -1 -1 0 0 0 0 1 -2 -2 -1 -0 -1 -4 0 11 5 -2 -8 -0 -3 -3 2 -2 -4 -6 4 1 -0 0 -1 -2 -4 -3 -4 -3 -6 -6 -9 -5 0 2 -5 -5 -2 -4 0
-1 -0 0 -1 -1 1 0 1 -1 -2 -4 -0 -3 -4 -5 5 12 2 0 -0 -2 -1 2 -0 -4 -0 1 -0 -8 -0 6 16 14 11 3 -2 -0 -12 -8 -9 -3 24 -0 -5 -5 14 -5
-0 -2 -0 0 0 0 -0 1 1 -1 -4 3 3 -7 -9 -7 21 8 4 -1 5 1 5 -2 -2 -1 0 -1 1 -7 -11 -1 -5 -5 4 0 2 0 -2 -13 -19 7 -7 -5 -10 6 5
0 0 -1 2 -0 1 1 -1 1 -0 -5 -3 9 1 -16 -12 6 3 7 0 3 2 -4 4 4 -1 3 1 -2 -0 -7 -0 -4 -5 -5 -4 -4 1 5 -6 -9 1 -5 -1 -7 -11 -4
-2 1 2 -1 -1 -1 0 2 -1 3 -2 -9 4 9 -5 -8 -5 4 6 7 2 5 2 -3 -3 13 -3 2 -2 4 -2 0 -1 2 -2 2 -4 -2 -2 1 -19 1 -1 -6 -4 -4 -6
2 0 1 -2 -1 0 2 1 3 4 -0 -8 -0 3 -1 -10 -9 3 4 8 6 3 -1 -5 -1 1 -7 -5 6 -7 -3 -5 -2 -16 5 -17 9 -1 4 7 9 1 7 3 2 2 -1
Height
5875 5874 5873 5872 5871 5868 5866 5864 5863 5862 5860 5859 5857 5855 5853 5851 5850 5848 5846 5845 5843 5841 5839 5836 5833 5831 5829 5826 5823 5819 5816 5812 5808 5804 5799 5795 5791 5787 5784 5779 5774 5770 5767 5763 5759 5756 5751
5877 5876 5875 5874 5872 5870 5867 5866 5864 5862 5861 5859 5858 5856 5854 5853 5851 5849 5847 5845 5843 5841 5838 5836 5834 5831 5829 5826 5823 5820 5816 5812 5808 5804 5799 5796 5792 5789 5784 5780 5774 5769 5765 5760 5756 5751 5749
5879 5878 5877 5876 5873 5871 5869 5867 5866 5864 5862 5860 5858 5857 5855 5853 5851 5849 5847 5845 5843 5840 5838 5835 5833 5831 5829 5827 5822 5819 5815 5812 5807 5802 5798 5794 5791 5789 5785 5780 5774 5769 5764 5759 5754 5752 5750
5880 5879 5879 5877 5875 5872 5870 5868 5867 5865 5863 5862 5860 5857 5855 5853 5851 5849 5847 5845 5842 5839 5837 5835 5832 5830 5828 5825 5821 5818 5813 5810 5805 5801 5797 5794 5791 5787 5783 5780 5775 5769 5764 5758 5754 5752 5750
5881 5881 5880 5878 5877 5875 5872 5870 5868 5866 5864 5862 5860 5858 5856 5854 5852 5850 5847 5845 5842 5839 5836 5833 5831 5829 5827 5823 5820 5816 5812 5808 5804 5800 5797 5793 5789 5785 5782 5778 5774 5769 5764 5758 5755 5752 5750
5882 5881 5880 5879 5878 5877 5875 5872 5870 5868 5866 5864 5861 5859 5856 5854 5852 5850 5847 5845 5843 5839 5835 5832 5830 5828 5825 5822 5818 5815 5811 5807 5803 5799 5796 5792 5787 5783 5779 5776 5773 5768 5764 5758 5755 5752 5748
5882 5882 5881 5880 5879 5878 5876 5874 5871 5869 5867 5865 5863 5860 5858 5855 5853 5850 5847 5845 5843 5840 5835 5832 5829 5826 5822 5819 5815 5812 5808 5805 5801 5798 5793 5790 5786 5782 5777 5774 5770 5766 5762 5759 5754 5751 5747
5881 5881 5881 5880 5879 5878 5876 5874 5872 5869 5867 5865 5863 5861 5859 5856 5854 5851 5849 5846 5843 5841 5836 5833 5829 5825 5821 5818 5815 5811 5807 5803 5798 5795 5791 5788 5784 5780 5775 5771 5768 5764 5760 5756 5753 5748 5744
5878 5879 5879 5880 5879 5878 5877 5875 5872 5870 5868 5865 5863 5862 5859 5856 5853 5851 5848 5846 5843 5840 5837 5834 5830 5826 5822 5818 5813 5809 5805 5801 5795 5792 5788 5784 5781 5777 5773 5769 5766 5761 5757 5753 5749 5745 5741
5876 5876 5876 5877 5877 5877 5876 5874 5872 5870 5868 5866 5864 5862 5860 5857 5855 5851 5848 5846 5843 5840 5837 5834 5830 5826 5822 5817 5814 5808 5803 5799 5794 5789 5785 5781 5777 5773 5770 5766 5761 5757 5753 5750 5745 5742 5739
5873 5873 5874 5874 5875 5875 5874 5873 5871 5870 5867 5865 5863 5862 5860 5857 5855 5852 5849 5846 5842 5839 5836 5834 5829 5824 5821 5817 5812 5806 5802 5797 5792 5787 5783 5778 5772 5769 5766 5763 5758 5755 5750 5746 5742 5738 5735
5869 5869 5870 5871 5872 5872 5872 5871 5869 5868 5866 5864 5862 5860 5858 5856 5854 5851 5848 5844 5841 5839 5834 5830 5827 5823 5819 5815 5809 5804 5799 5795 5791 5785 5780 5775 5770 5765 5761 5757 5754 5749 5746 5742 5739 5736 5732
5865 5866 5867 5868 5869 5869 5869 5868 5867 5866 5864 5862 5861 5858 5856 5854 5852 5849 5846 5843 5840 5835 5832 5829 5825 5821 5818 5813 5808 5803 5798 5793 5789 5785 5779 5773 5768 5763 5759 5754 5749 5744 5742 5738 5735 5732 5730
5861 5862 5864 5865 5866 5867 5866 5865 5864 5863 5861 5859 5858 5856 5853 5851 5849 5846 5843 5840 5837 5833 5827 5824 5820 5817 5813 5809 5805 5799 5795 5790 5785 5780 5776 5772 5765 5759 5753 5749 5745 5742 5737 5734 5729 5727 5725
5856 5858 5860 5862 5863 5863 5863 5862 5861 5860 5858 5856 5854 5853 5850 5848 5845 5841 5839 5836 5833 5829 5826 5821 5817 5813 5809 5805 5801 5795 5791 5786 5781 5776 5772 5766 5762 5756 5751 5747 5742 5738 5735 5730 5724 5720 5716
5851 5853 5855 5857 5858 5858 5858 5858 5857 5856 5855 5854 5851 5849 5847 5844 5841 5838 5835 5832 5829 5825 5821 5817 5813 5810 5805 5801 5797 5791 5787 5783 5778 5772 5766 5762 5759 5752 5747 5743 5738 5734 5730 5723 5719 5714 5709
5847 5848 5849 5850 5851 5852 5852 5852 5851 5851 5850 5849 5847 5845 5842 5840 5837 5834 5831 5828 5824 5821 5817 5813 5809 5805 5801 5797 5793 5788 5784 5779 5773 5767 5762 5757 5755 5749 5742 5738 5733 5729 5724 5718 5714 5709 5703
5840 5842 5843 5844 5844 5845 5845 5845 5845 5844 5844 5843 5841 5839 5838 5835 5833 5829 5826 5823 5821 5817 5813 5809 5804 5801 5797 5792 5789 5785 5780 5775 5770 5764 5758 5753 5749 5744 5740 5733 5730 5725 5718 5712 5707 5704 5698
5833 5834 5836 5837 5837 5838 5837 5837 5837 5836 5836 5836 5834 5833 5832 5829 5827 5824 5821 5819 5815 5811 5808 5804 5799 5796 5792 5788 5785 5780 5775 5771 5764 5758 5752 5748 5744 5737 5735 5730 5724 5721 5714 5707 5702 5697 5696
5826 5827 5829 5830 5830 5831 5830 5829 5829 5829 5828 5828 5827 5826 5825 5822 5820 5817 5814 5812 5809 5805 5801 5798 5795 5791 5787 5783 5779 5775 5770 5765 5759 5753 5748 5743 5740 5734 5730 5724 5718 5715 5710 5703 5697 5693 5686
5818 5818 5820 5821 5822 5823 5823 5823 5822 5822 5821 5821 5819 5818 5816 5814 5812 5810 5808 5805 5802 5798 5795 5792 5789 5785 5781 5777 5774 5769 5764 5759 5753 5748 5743 5739 5735 5728 5726 5719 5714 5710 5705 5699 5692 5688 5680
5809 5810 5811 5812 5812 5813 5813 5812 5813 5813 5812 5812 5811 5810 5809 5806 5803 5801 5799 5796 5793 5790 5788 5785 5782 5778 5774 5770 5766 5761 5757 5752 5748 5743 5737 5733 5728 5722 5720 5713 5708 5705 5699 5693 5687 5682 5677
5799 5800 5801 5803 5803 5804 5804 5804 5803 5803 5803 5802 5802 5802 5800 5798 5796 5793 5791 5788 5785 5783 5780 5777 5774 5771 5766 5762 5758 5754 5749 5743 5739 5735 5730 5725 5719 5714 5712 5706 5701 5700 5692 5686 5681 5676 5671
5788 5789 5791 5792 5793 5794 5794 5794 5794 5793 5793 5793 5793 5793 5793 5791 5787 5785 5782 5779 5776 5774 5772 5769 5765 5761 5758 5754 5750 5747 5742 5736 5731 5727 5722 5718 5712 5707 5703 5698 5694 5691 5684 5678 5673 5669 5663
5777 5778 5780 5780 5781 5782 5783 5783 5784 5784 5784 5783 5782 5781 5781 5781 5778 5775 5771 5769 5766 5764 5762 5759 5754 5751 5748 5745 5740 5737 5734 5730 5725 5721 5714 5708 5702 5697 5694 5688 5686 5683 5675 5669 5664 5662 5653
5764 5766 5768 5769 5770 5769 5770 5771 5770 5771 5771 5771 5770 5768 5768 5768 5771 5765 5762 5759 5757 5754 5753 5749 5745 5742 5738 5734 5730 5726 5722 5718 5715 5711 5707 5700 5694 5689 5684 5677 5674 5673 5666 5659 5654 5651 5644
5750 5752 5754 5755 5756 5757 5757 5758 5758 5757 5756 5758 5757 5754 5754 5755 5757 5754 5751 5749 5746 5743 5743 5740 5737 5733 5728 5724 5720 5717 5713 5709 5705 5702 5697 5691 5685 5679 5672 5665 5664 5660 5653 5648 5644 5641 5635
5734 5736 5738 5740 5742 5743 5744 5744 5743 5743 5741 5742 5745 5741 5740 5742 5744 5743 5741 5739 5736 5734 5730 5728 5726 5723 5717 5712 5709 5704 5700 5697 5694 5690 5685 5680 5674 5669 5663 5655 5652 5648 5642 5638 5633 5628 5623
5720 5721 5724 5725 5726 5728 5729 5729 5729 5728 5726 5726 5731 5728 5725 5727 5732 5730 5729 5728 5726 5723 5720 5716 5714 5709 5704 5700 5696 5690 5687 5683 5680 5677 5674 5668 5665 5659 5655 5647 5641 5634 5629 5625 5620 5614 5610